^^
Station Historical Data
Daily Summary for August 2, 2021 Units:  English    Metric   Both
Daily Weekly Monthly Yearly
  High: Low: Average:
Temperature: 74 °F 62.4 °F 67.3 °F
Dew Point: 60.8 °F 56.6 °F 58.6 °F
Humidity: 85% 59% 74%
Wind Speed: 5mph 1mph 2.8mph
Wind Gust: 7mph - -
Wind- - SSW
Pressure: 30.11 in 30.02 in -
Precipitation: 0.00 in    
 
 
Tabular Data for August 2, 2021
Time Temperature Dew Point Pressure Wind Wind Speed Wind Gust Humidity Rainfall Rate (Hourly) solar
00:01 67.5 °F 57.4 °F 30.03 in NE 4 mph 4 mph 70% 0.00 in 0 W/m2
00:05 67.4 °F 57.3 °F 30.02 in NE 4 mph 4 mph 70% 0.00 in 0 W/m2
00:10 67.3 °F 57.6 °F 30.02 in NNW 4 mph 4 mph 71% 0.00 in 0 W/m2
00:15 67.2 °F 57.5 °F 30.03 in ENE 3 mph 3 mph 71% 0.00 in 0 W/m2
00:25 66.9 °F 57.6 °F 30.03 in WNW 3 mph 5 mph 72% 0.00 in 0 W/m2
00:30 66.8 °F 57.5 °F 30.03 in North 3 mph 5 mph 72% 0.00 in 0 W/m2
00:35 66.7 °F 57.4 °F 30.03 in WNW 3 mph 3 mph 72% 0.00 in 0 W/m2
00:40 66.6 °F 57.3 °F 30.03 in NE 3 mph 3 mph 72% 0.00 in 0 W/m2
00:45 66.5 °F 57.2 °F 30.03 in WNW 4 mph 4 mph 72% 0.00 in 0 W/m2
00:55 66.4 °F 57.5 °F 30.03 in NW 3 mph 7 mph 73% 0.00 in 0 W/m2
01:00 66.3 °F 57.4 °F 30.03 in NW 4 mph 4 mph 73% 0.00 in 0 W/m2
01:05 66.2 °F 57.3 °F 30.03 in NNW 4 mph 4 mph 73% 0.00 in 0 W/m2
01:10 66.1 °F 57.6 °F 30.03 in WNW 5 mph 5 mph 74% 0.00 in 0 W/m2
01:15 66.1 °F 57.6 °F 30.03 in NW 5 mph 5 mph 74% 0.00 in 0 W/m2
01:20 66 °F 57.8 °F 30.03 in West 4 mph 4 mph 75% 0.00 in 0 W/m2
01:25 66 °F 57.8 °F 30.03 in North 4 mph 4 mph 75% 0.00 in 0 W/m2
01:30 66 °F 57.5 °F 30.03 in NNW 4 mph 4 mph 74% 0.00 in 0 W/m2
01:35 65.9 °F 56.6 °F 30.03 in NNE 4 mph 4 mph 72% 0.00 in 0 W/m2
01:40 65.9 °F 57.4 °F 30.03 in East 4 mph 4 mph 74% 0.00 in 0 W/m2
01:45 65.9 °F 57.4 °F 30.03 in WNW 4 mph 4 mph 74% 0.00 in 0 W/m2
01:55 65.9 °F 57 °F 30.03 in East 4 mph 4 mph 73% 0.00 in 0 W/m2
02:00 65.8 °F 56.9 °F 30.03 in East 4 mph 5 mph 73% 0.00 in 0 W/m2
02:05 65.7 °F 56.8 °F 30.03 in NE 4 mph 6 mph 73% 0.00 in 0 W/m2
02:10 65.7 °F 56.8 °F 30.03 in WNW 4 mph 4 mph 73% 0.00 in 0 W/m2
02:15 65.6 °F 56.7 °F 30.03 in ENE 4 mph 4 mph 73% 0.00 in 0 W/m2
02:25 65.5 °F 57.4 °F 30.03 in North 4 mph 6 mph 75% 0.00 in 0 W/m2
02:30 65.5 °F 57.7 °F 30.03 in NNW 4 mph 6 mph 76% 0.00 in 0 W/m2
02:35 65.5 °F 58.1 °F 30.03 in NW 5 mph 5 mph 77% 0.00 in 0 W/m2
02:40 65.4 °F 58 °F 30.03 in ENE 5 mph 5 mph 77% 0.00 in 0 W/m2
02:45 65.3 °F 58.3 °F 30.03 in NNE 4 mph 4 mph 78% 0.00 in 0 W/m2
02:55 65.1 °F 58.4 °F 30.03 in NE 4 mph 4 mph 79% 0.00 in 0 W/m2
03:00 65 °F 58.3 °F 30.03 in ESE 4 mph 4 mph 79% 0.00 in 0 W/m2
03:05 65 °F 58.3 °F 30.03 in SSE 4 mph 4 mph 79% 0.00 in 0 W/m2
03:10 64.9 °F 58.2 °F 30.03 in NNW 4 mph 4 mph 79% 0.00 in 0 W/m2
03:15 64.9 °F 58.6 °F 30.03 in ESE 4 mph 4 mph 80% 0.00 in 0 W/m2
03:20 64.8 °F 58.5 °F 30.03 in NNE 4 mph 4 mph 80% 0.00 in 0 W/m2
03:25 64.7 °F 58 °F 30.03 in ENE 4 mph 4 mph 79% 0.00 in 0 W/m2
03:30 64.6 °F 58.3 °F 30.03 in ENE 3 mph 5 mph 80% 0.00 in 0 W/m2
03:35 64.6 °F 58.3 °F 30.03 in NW 3 mph 7 mph 80% 0.00 in 0 W/m2
03:40 64.6 °F 58.3 °F 30.03 in NNW 4 mph 6 mph 80% 0.00 in 0 W/m2
03:45 64.5 °F 58.2 °F 30.03 in SSE 4 mph 6 mph 80% 0.00 in 0 W/m2
03:55 64.5 °F 58.2 °F 30.04 in NW 3 mph 5 mph 80% 0.00 in 0 W/m2
04:00 64.5 °F 58.2 °F 30.04 in ENE 3 mph 3 mph 80% 0.00 in 0 W/m2
04:05 64.4 °F 58.1 °F 30.04 in NNE 3 mph 3 mph 80% 0.00 in 0 W/m2
04:15 64.3 °F 58 °F 30.05 in NE 4 mph 4 mph 80% 0.00 in 0 W/m2
04:20 64.3 °F 58 °F 30.05 in NNW 4 mph 4 mph 80% 0.00 in 0 W/m2
04:25 64.3 °F 58 °F 30.05 in East 3 mph 3 mph 80% 0.00 in 0 W/m2
04:30 64.3 °F 58 °F 30.05 in North 3 mph 3 mph 80% 0.00 in 0 W/m2
04:35 64.3 °F 58 °F 30.05 in North 3 mph 3 mph 80% 0.00 in 0 W/m2
04:40 64.3 °F 58.3 °F 30.05 in NE 2 mph 3 mph 81% 0.00 in 0 W/m2
04:45 64.2 °F 57.9 °F 30.05 in NNW 2 mph 2 mph 80% 0.00 in 0 W/m2
04:55 64.1 °F 57.8 °F 30.05 in NNW 3 mph 4 mph 80% 0.00 in 0 W/m2
05:00 64.1 °F 58.1 °F 30.05 in WNW 3 mph 3 mph 81% 0.00 in 0 W/m2
05:05 64 °F 58.1 °F 30.05 in NNW 3 mph 3 mph 81% 0.00 in 0 W/m2
05:10 64 °F 58.1 °F 30.06 in NW 3 mph 4 mph 81% 0.00 in 0 W/m2
05:15 63.8 °F 57.9 °F 30.06 in North 3 mph 4 mph 81% 0.00 in 0 W/m2
05:25 63.7 °F 58.1 °F 30.06 in WNW 3 mph 3 mph 82% 0.00 in 0 W/m2
05:35 63.5 °F 57.9 °F 30.06 in NW 3 mph 4 mph 82% 0.00 in 0 W/m2
05:40 63.3 °F 57.7 °F 30.06 in NNW 3 mph 4 mph 82% 0.00 in 0 W/m2
05:45 63.2 °F 57.6 °F 30.06 in NW 3 mph 3 mph 82% 0.00 in 0 W/m2
05:50 63.1 °F 57.5 °F 30.06 in NNE 3 mph 4 mph 82% 0.00 in 0 W/m2
05:55 63 °F 57.4 °F 30.06 in NW 3 mph 5 mph 82% 0.00 in 0 W/m2
06:05 62.7 °F 57.5 °F 30.06 in West 3 mph 3 mph 83% 0.00 in 0 W/m2
06:10 62.7 °F 57.5 °F 30.07 in WNW 3 mph 5 mph 83% 0.00 in 0 W/m2
06:20 62.5 °F 57.3 °F 30.07 in NW 2 mph 5 mph 83% 0.00 in 0 W/m2
06:25 62.5 °F 57.3 °F 30.07 in NW 2 mph 5 mph 83% 0.00 in 5 W/m2
06:30 62.5 °F 57.3 °F 30.07 in NW 2 mph 5 mph 83% 0.00 in 7 W/m2
06:35 62.4 °F 57.5 °F 30.07 in NW 3 mph 5 mph 84% 0.00 in 11 W/m2
06:40 62.4 °F 57.5 °F 30.07 in NW 3 mph 4 mph 84% 0.00 in 12 W/m2
06:45 62.4 °F 57.5 °F 30.07 in NNW 2 mph 4 mph 84% 0.00 in 14 W/m2
06:55 62.5 °F 57.6 °F 30.08 in NNE 2 mph 2 mph 84% 0.00 in 19 W/m2
07:00 62.5 °F 57.6 °F 30.07 in NE 2 mph 2 mph 84% 0.00 in 21 W/m2
07:05 62.5 °F 57.9 °F 30.08 in North 2 mph 2 mph 85% 0.00 in 25 W/m2
07:10 62.6 °F 58 °F 30.08 in NW 2 mph 2 mph 85% 0.00 in 26 W/m2
07:15 62.6 °F 58 °F 30.08 in NNW 2 mph 3 mph 85% 0.00 in 28 W/m2
07:25 62.8 °F 58.2 °F 30.08 in NNW 2 mph 2 mph 85% 0.00 in 32 W/m2
07:30 62.9 °F 58.3 °F 30.08 in NNW 2 mph 2 mph 85% 0.00 in 33 W/m2
07:35 63 °F 58.4 °F 30.08 in ESE 2 mph 2 mph 85% 0.00 in 33 W/m2
07:40 63 °F 58.4 °F 30.08 in NNE 2 mph 4 mph 85% 0.00 in 37 W/m2
07:45 63.2 °F 58.6 °F 30.09 in ENE 2 mph 2 mph 85% 0.00 in 37 W/m2
07:50 63.3 °F 58.7 °F 30.09 in NW 2 mph 2 mph 85% 0.00 in 39 W/m2
07:55 63.4 °F 58.8 °F 30.09 in NNE 2 mph 3 mph 85% 0.00 in 39 W/m2
08:00 63.5 °F 58.9 °F 30.09 in NNW 2 mph 2 mph 85% 0.00 in 40 W/m2
08:05 63.6 °F 59 °F 30.09 in NNW 3 mph 3 mph 85% 0.00 in 40 W/m2
08:10 63.6 °F 58.7 °F 30.09 in NW 3 mph 3 mph 84% 0.00 in 42 W/m2
08:15 63.7 °F 58.8 °F 30.09 in SSE 3 mph 3 mph 84% 0.00 in 42 W/m2
08:25 63.8 °F 58.9 °F 30.09 in NW 3 mph 5 mph 84% 0.00 in 232 W/m2
08:30 63.9 °F 58.6 °F 30.09 in ENE 3 mph 5 mph 83% 0.00 in 241 W/m2
08:35 64 °F 58.7 °F 30.09 in NNW 2 mph 4 mph 83% 0.00 in 255 W/m2
08:40 64 °F 58.7 °F 30.10 in North 3 mph 4 mph 83% 0.00 in 267 W/m2
08:45 64.1 °F 58.8 °F 30.10 in ESE 2 mph 2 mph 83% 0.00 in 290 W/m2
08:50 64.1 °F 58.8 °F 30.10 in NE 2 mph 2 mph 83% 0.00 in 329 W/m2
08:55 64.2 °F 58.9 °F 30.10 in NNE 2 mph 2 mph 83% 0.00 in 345 W/m2
09:05 64.4 °F 58.8 °F 30.10 in NNE 2 mph 2 mph 82% 0.00 in 371 W/m2
09:10 64.5 °F 58.9 °F 30.10 in North 2 mph 5 mph 82% 0.00 in 383 W/m2
09:15 64.6 °F 58.6 °F 30.11 in NW 3 mph 5 mph 81% 0.00 in 399 W/m2
09:20 64.6 °F 58.6 °F 30.11 in NE 3 mph 5 mph 81% 0.00 in 411 W/m2
09:25 64.6 °F 58.6 °F 30.11 in NNW 2 mph 2 mph 81% 0.00 in 427 W/m2
09:30 64.7 °F 58.7 °F 30.11 in North 2 mph 2 mph 81% 0.00 in 439 W/m2
09:35 64.8 °F 58.8 °F 30.11 in NW 2 mph 2 mph 81% 0.00 in 454 W/m2
09:40 64.8 °F 58.8 °F 30.11 in North 2 mph 3 mph 81% 0.00 in 466 W/m2
09:45 64.9 °F 58.9 °F 30.11 in NW 2 mph 2 mph 81% 0.00 in 478 W/m2
09:55 65 °F 59 °F 30.11 in NW 2 mph 2 mph 81% 0.00 in 503 W/m2
10:00 65 °F 59 °F 30.11 in NNE 2 mph 2 mph 81% 0.00 in 519 W/m2
10:05 65.2 °F 58.9 °F 30.11 in ESE 2 mph 2 mph 80% 0.00 in 531 W/m2
10:15 65.3 °F 59 °F 30.11 in NE 2 mph 2 mph 80% 0.00 in 554 W/m2
10:20 65.4 °F 59.1 °F 30.11 in NW 2 mph 2 mph 80% 0.00 in 566 W/m2
10:25 65.4 °F 59.1 °F 30.11 in NNE 2 mph 2 mph 80% 0.00 in 577 W/m2
10:35 65.6 °F 58.9 °F 30.11 in NNE 2 mph 2 mph 79% 0.00 in 601 W/m2
10:40 65.7 °F 59 °F 30.11 in WNW 2 mph 3 mph 79% 0.00 in 613 W/m2
10:46 65.8 °F 59.1 °F 30.11 in NW 3 mph 4 mph 79% 0.00 in 624 W/m2
10:50 65.9 °F 58.8 °F 30.11 in NNW 4 mph 4 mph 78% 0.00 in 633 W/m2
10:55 65.9 °F 58.8 °F 30.11 in North 3 mph 4 mph 78% 0.00 in 645 W/m2
11:00 66.1 °F 59 °F 30.11 in WNW 2 mph 2 mph 78% 0.00 in 654 W/m2
11:05 66.2 °F 58.8 °F 30.11 in NW 2 mph 4 mph 77% 0.00 in 668 W/m2
11:10 66.4 °F 58.6 °F 30.11 in West 2 mph 4 mph 76% 0.00 in 679 W/m2
11:15 66.5 °F 59.1 °F 30.11 in SE 3 mph 4 mph 77% 0.00 in 686 W/m2
11:20 66.8 °F 59.4 °F 30.11 in North 2 mph 2 mph 77% 0.00 in 700 W/m2
11:25 66.9 °F 59.5 °F 30.11 in WSW 2 mph 3 mph 77% 0.00 in 703 W/m2
11:35 67.2 °F 59.4 °F 30.11 in WSW 2 mph 5 mph 76% 0.00 in 726 W/m2
11:40 67.4 °F 59.9 °F 30.11 in WNW 2 mph 5 mph 77% 0.00 in 731 W/m2
11:45 67.7 °F 60.2 °F 30.11 in NW 2 mph 2 mph 77% 0.00 in 747 W/m2
11:50 67.8 °F 60 °F 30.11 in WNW 3 mph 3 mph 76% 0.00 in 751 W/m2
11:55 68 °F 59.8 °F 30.11 in North 2 mph 4 mph 75% 0.00 in 759 W/m2
12:05 68.1 °F 58.3 °F 30.11 in NNW 3 mph 5 mph 71% 0.00 in 775 W/m2
12:10 68.3 °F 59.3 °F 30.11 in West 3 mph 5 mph 73% 0.00 in 780 W/m2
12:15 68.6 °F 59.6 °F 30.11 in SW 3 mph 3 mph 73% 0.00 in 788 W/m2
12:20 68.8 °F 60.2 °F 30.11 in WSW 3 mph 3 mph 74% 0.00 in 796 W/m2
12:25 68.6 °F 59.6 °F 30.11 in SSW 3 mph 4 mph 73% 0.00 in 798 W/m2
12:30 68.6 °F 59.2 °F 30.11 in SSW 3 mph 5 mph 72% 0.00 in 805 W/m2
12:35 68.7 °F 60.1 °F 30.10 in WSW 3 mph 3 mph 74% 0.00 in 809 W/m2
12:40 68.6 °F 60 °F 30.10 in SSW 3 mph 5 mph 74% 0.00 in 814 W/m2
12:45 68.9 °F 60.3 °F 30.10 in SSW 3 mph 3 mph 74% 0.00 in 817 W/m2
12:55 69.6 °F 60.6 °F 30.10 in South 3 mph 3 mph 73% 0.00 in 826 W/m2
13:00 69.6 °F 60.6 °F 30.10 in South 3 mph 3 mph 73% 0.00 in 828 W/m2
13:05 69.9 °F 60.8 °F 30.10 in SSE 3 mph 3 mph 73% 0.00 in 831 W/m2
13:10 70 °F 60.2 °F 30.10 in SSE 3 mph 3 mph 71% 0.00 in 837 W/m2
13:15 69.9 °F 60.1 °F 30.10 in SSE 3 mph 4 mph 71% 0.00 in 840 W/m2
13:20 70.3 °F 60.1 °F 30.10 in SSW 3 mph 5 mph 70% 0.00 in 844 W/m2
13:25 70.5 °F 60.2 °F 30.10 in SSE 3 mph 5 mph 70% 0.00 in 846 W/m2
13:30 70.7 °F 59.6 °F 30.10 in WNW 3 mph 3 mph 68% 0.00 in 847 W/m2
13:35 70.8 °F 59.7 °F 30.09 in NNW 3 mph 3 mph 68% 0.00 in 847 W/m2
13:40 70.9 °F 59 °F 30.10 in SSW 3 mph 6 mph 66% 0.00 in 847 W/m2
13:45 71.1 °F 60.8 °F 30.09 in WSW 3 mph 6 mph 70% 0.00 in 849 W/m2
13:55 70.7 °F 60 °F 30.09 in West 3 mph 3 mph 69% 0.00 in 849 W/m2
14:00 70.7 °F 59.2 °F 30.09 in WSW 3 mph 3 mph 67% 0.00 in 849 W/m2
14:06 70.8 °F 60.1 °F 30.09 in WSW 3 mph 3 mph 69% 0.00 in 849 W/m2
14:10 71 °F 60.3 °F 30.09 in South 3 mph 3 mph 69% 0.00 in 847 W/m2
14:15 71 °F 59.9 °F 30.08 in South 3 mph 3 mph 68% 0.00 in 846 W/m2
14:25 70.6 °F 59.1 °F 30.08 in South 2 mph 4 mph 67% 0.00 in 842 W/m2
14:30 70.5 °F 60.2 °F 30.08 in SSW 2 mph 4 mph 70% 0.00 in 838 W/m2
14:35 70.7 °F 59.2 °F 30.08 in SSW 2 mph 2 mph 67% 0.00 in 838 W/m2
14:45 71.2 °F 59.7 °F 30.08 in SSW 2 mph 3 mph 67% 0.00 in 831 W/m2
14:50 71.3 °F 58.9 °F 30.08 in SSW 2 mph 3 mph 65% 0.00 in 828 W/m2
14:55 71.3 °F 58.5 °F 30.08 in South 2 mph 2 mph 64% 0.00 in 821 W/m2
15:00 71 °F 58.2 °F 30.07 in WSW 2 mph 2 mph 64% 0.00 in 816 W/m2
15:05 71.2 °F 58.4 °F 30.07 in West 2 mph 2 mph 64% 0.00 in 807 W/m2
15:15 71.3 °F 58.9 °F 30.07 in SW 3 mph 3 mph 65% 0.00 in 796 W/m2
15:20 71.5 °F 59.5 °F 30.07 in SSE 2 mph 3 mph 66% 0.00 in 793 W/m2
15:25 71.4 °F 59.4 °F 30.07 in SSW 2 mph 4 mph 66% 0.00 in 784 W/m2
15:30 71.3 °F 59.8 °F 30.06 in South 2 mph 4 mph 67% 0.00 in 775 W/m2
15:35 71.3 °F 58.5 °F 30.06 in SSW 2 mph 3 mph 64% 0.00 in 766 W/m2
15:45 71.6 °F 58.3 °F 30.06 in SSE 2 mph 2 mph 63% 0.00 in 754 W/m2
15:50 71.8 °F 59 °F 30.06 in SSE 3 mph 5 mph 64% 0.00 in 744 W/m2
15:55 71.8 °F 58.1 °F 30.06 in SSW 2 mph 2 mph 62% 0.00 in 738 W/m2
16:00 71.9 °F 57.7 °F 30.06 in WSW 2 mph 3 mph 61% 0.00 in 729 W/m2
16:05 72 °F 58.3 °F 30.06 in North 2 mph 3 mph 62% 0.00 in 719 W/m2
16:15 72.2 °F 58.9 °F 30.05 in NE 2 mph 2 mph 63% 0.00 in 701 W/m2
16:20 72.6 °F 59.3 °F 30.05 in SE 1 mph 2 mph 63% 0.00 in 693 W/m2
16:25 72.8 °F 59.9 °F 30.05 in South 2 mph 4 mph 64% 0.00 in 684 W/m2
16:30 72.8 °F 58.1 °F 30.05 in SE 2 mph 4 mph 60% 0.00 in 673 W/m2
16:35 72.9 °F 57.7 °F 30.05 in SW 2 mph 2 mph 59% 0.00 in 663 W/m2
16:45 73.3 °F 59 °F 30.05 in SW 2 mph 2 mph 61% 0.00 in 640 W/m2
16:55 73.8 °F 59.5 °F 30.05 in SSE 2 mph 3 mph 61% 0.00 in 619 W/m2
17:00 73.8 °F 59 °F 30.05 in SW 3 mph 3 mph 60% 0.00 in 608 W/m2
17:05 73.9 °F 59.6 °F 30.05 in SSW 3 mph 4 mph 61% 0.00 in 606 W/m2
17:10 73.9 °F 59.1 °F 30.04 in SSW 3 mph 3 mph 60% 0.00 in 622 W/m2
17:15 74 °F 59.7 °F 30.04 in SW 3 mph 3 mph 61% 0.00 in 643 W/m2
17:25 73.4 °F 58.2 °F 30.04 in East 2 mph 2 mph 59% 0.00 in 624 W/m2
17:30 73.3 °F 58.6 °F 30.04 in South 2 mph 3 mph 60% 0.00 in 596 W/m2
17:35 73.3 °F 58.6 °F 30.04 in SSW 2 mph 3 mph 60% 0.00 in 446 W/m2
17:40 73.3 °F 59 °F 30.04 in South 2 mph 3 mph 61% 0.00 in 513 W/m2
17:45 73.3 °F 59.9 °F 30.04 in SW 2 mph 2 mph 63% 0.00 in 492 W/m2
17:50 73.3 °F 59.5 °F 30.04 in SW 2 mph 3 mph 62% 0.00 in 482 W/m2
17:55 73.3 °F 58.6 °F 30.04 in SW 3 mph 3 mph 60% 0.00 in 471 W/m2
18:00 73.3 °F 59.5 °F 30.04 in SW 3 mph 5 mph 62% 0.00 in 459 W/m2
18:05 73.3 °F 59 °F 30.03 in East 2 mph 5 mph 61% 0.00 in 439 W/m2
18:10 73.3 °F 59 °F 30.03 in SSW 2 mph 2 mph 61% 0.00 in 420 W/m2
18:15 73.5 °F 58.8 °F 30.03 in NW 2 mph 2 mph 60% 0.00 in 404 W/m2
18:25 73.4 °F 59.6 °F 30.03 in SE 2 mph 3 mph 62% 0.00 in 376 W/m2
18:30 73.4 °F 58.7 °F 30.03 in SE 2 mph 3 mph 60% 0.00 in 360 W/m2
18:36 73.3 °F 58.6 °F 30.03 in WSW 2 mph 2 mph 60% 0.00 in 345 W/m2
18:40 73.4 °F 60 °F 30.03 in SW 2 mph 2 mph 63% 0.00 in 329 W/m2
18:45 73.3 °F 59 °F 30.03 in South 2 mph 2 mph 61% 0.00 in 316 W/m2
18:55 73.4 °F 58.2 °F 30.03 in SW 2 mph 4 mph 59% 0.00 in 288 W/m2
Sand Point, Michigan, USA
Compliments of Weather Underground - 2 mb